{"data":{"norad_id":55015,"intl_designator":"2023-001G","name":"BIRKELAND","alt_names":[],"object_type":"PAYLOAD","status":"ACTIVE","operator":null,"country":"NOR","launch_date":"2023-01-03","launch_site_code":"AFETR","launch_vehicle":null,"mission":null,"orbit_class":"UNKNOWN","rcs_meters":null,"size_class":null,"mass_kg":null,"dimensions":null,"purposes":[],"wikipedia_slug":null,"has_3d_model":false,"image_url":null,"decayed_at":null,"tle_current":{"epoch":"2026-05-25T03:24:57.693888Z","epoch_age_seconds":65983,"freshness":"FRESH","line1":"1 55015U 23001G   26145.14233442  .00008180  00000+0  20963-3 0  9992","line2":"2 55015  97.3355 213.0597 0007082 173.6352 186.4985 15.39607744188803","mean_motion":15.39607744,"eccentricity":0.0007082,"inclination_deg":97.3355,"raan_deg":213.0597,"arg_perigee_deg":173.6352,"mean_anomaly_deg":186.4985,"bstar":0.00020963,"rev_number":18880,"period_min":93.530316771387,"perigee_km":442.43462211893,"apogee_km":452.10212629095,"semimajor_km":6825.4053742049,"source":"CELESTRAK","updated_at":"2026-05-25T13:37:58.809937Z"}}}